Flag for U.S.A. Weather past 2 weeks in Louisville, Kentucky, U.S.A.

Now
80 °F

Passing clouds.


Feels Like: 84 °F
Forecast: 73 / 81 °F
Wind: 8 mph from Southwest

Location: Standiford Field

Current Time: Sep 2, 2014 at 12:28:09 AM

Latest Report: Sep 1, 2014 at 11:56 PM


Visibility: 10 mi

Pressure: 29.95 "Hg

Humidity: 76%

Dew point: 72 °F

Location of LouisvilleLocation

Historic Weather in Louisville — Graph

°F

Louisville temperature yesterday

Maximum temperature yesterday: 88 °F (at 2:56 PM)
Minimum temperature yesterday: 75 °F (at 2:56 AM)
Average temperature yesterday: 81 °F

Past Weeks' High & Low Weather Summary

 TemperatureHumidityPressure
High93 °F (Aug 25, 2:56 PM)97% (Aug 17, 11:56 PM)30.12 "Hg (Aug 17, 11:56 PM)
Low71 °F (Aug 19, 6:56 AM)38% (Aug 29, 5:56 PM)29.79 "Hg (Aug 19, 4:56 PM)
Average80 °F75%29.97 "Hg
* Reported Aug 17 10:56 PM — Sep 1 10:56 PM, Louisville, Weather by CustomWeather, © 2014

Note: Actual official high and low records may vary slightly from our data, if they occured in-between our weather recording intervals... More about our weather records

Advertising

Louisville weather history for previous 24 hours

 ConditionsComfort  
Time TempWeatherWind HumidityBarometerVisibility
10:56 PM
Sep 1
80 °FClear.8 mph76%29.96 "Hg10 mi
9:56 PM81 °FClear.9 mph74%29.96 "Hg10 mi
8:56 PM82 °FPassing clouds.10 mph72%29.94 "Hg10 mi
7:56 PM83 °FScattered clouds.10 mph68%29.93 "Hg10 mi
6:56 PM85 °FBroken clouds.13 mph63%29.94 "Hg10 mi
5:56 PM87 °FPartly sunny.15 mph59%29.91 "Hg10 mi
4:56 PM86 °FMostly cloudy.10 mph61%29.91 "Hg10 mi
3:56 PM88 °FPartly sunny.16 mph59%29.91 "Hg10 mi
2:56 PM88 °FScattered clouds.22 mph59%29.91 "Hg10 mi
1:56 PM87 °FBroken clouds.18 mph61%29.94 "Hg10 mi
12:56 PM84 °FBroken clouds.18 mph65%29.96 "Hg10 mi
11:56 AM82 °FPartly sunny.16 mph74%29.98 "Hg10 mi
10:56 AM81 °FPartly sunny.17 mph74%29.99 "Hg10 mi
9:56 AM80 °FBroken clouds.13 mph76%29.99 "Hg10 mi
8:56 AM77 °FBroken clouds.8 mph85%30.00 "Hg10 mi
7:56 AM76 °FPartly cloudy.7 mph88%30.00 "Hg10 mi
6:56 AM76 °FOvercast.10 mph88%29.99 "Hg10 mi
5:56 AM76 °FOvercast.7 mph88%29.99 "Hg10 mi
4:56 AM75 °FOvercast.7 mph90%29.99 "Hg10 mi
3:56 AM75 °FPassing clouds.7 mph88%29.99 "Hg10 mi
2:56 AM75 °FClear.6 mph90%29.99 "Hg10 mi
1:56 AM76 °FPassing clouds.6 mph88%29.99 "Hg10 mi
12:56 AM76 °FPassing clouds.7 mph88%29.98 "Hg10 mi
Weather by CustomWeather, © 2014

See weather overviewHow to use our weather pages